GFSSE_prec_precacc_264.txt.gz
Total_Precipitation_Accumulation
0.40 0.30 0.26 0.09 0.09 0.07 0.08 0.04 0.02 0.03 0.03 0.04 0.04 0.05 0.11 0.14 0.11 0.10 0.11 0.12 0.16 0.17 0.14 0.11 0.19 0.27 0.29 0.37 0.37 0.46 0.34 0.35 0.58 1.29 1.71 1.52 1.60 1.40 1.20 1.35 1.26 1.27 1.82
0.88 0.59 0.66 0.26 0.08 0.05 0.07 0.07 0.10 0.04 0.05 0.08 0.04 0.06 0.12 0.17 0.13 0.11 0.14 0.27 0.37 0.39 0.34 0.23 0.34 0.49 0.46 0.46 0.37 0.40 0.26 0.10 0.14 0.47 1.23 1.41 1.05 0.97 1.21 1.63 1.57 1.33 1.39
1.21 1.01 0.81 0.69 0.22 0.15 0.33 0.12 0.05 0.05 0.04 0.03 0.03 0.04 0.17 0.21 0.21 0.27 0.46 0.45 0.63 0.62 0.46 0.34 0.54 0.78 0.80 0.61 0.43 0.46 0.24 0.10 0.13 0.21 0.53 0.78 1.10 1.30 0.94 1.10 1.35 1.31 1.38
0.96 1.23 0.92 1.07 1.12 0.53 0.43 0.23 0.17 0.10 0.05 0.03 0.12 0.14 0.33 0.25 0.37 0.88 1.15 1.05 0.89 0.84 0.58 0.49 0.52 1.36 1.05 0.85 0.52 0.31 0.21 0.18 0.24 0.20 0.27 0.58 1.10 1.38 0.84 0.70 0.87 1.10 1.34
0.94 0.60 0.96 1.12 1.00 0.80 0.47 0.28 0.43 0.48 0.34 0.08 0.08 0.28 0.45 0.67 1.42 2.37 2.62 1.60 1.70 1.62 1.16 0.90 0.69 1.01 1.19 0.84 0.49 0.32 0.25 0.17 0.23 0.42 0.54 0.63 0.75 1.28 0.90 0.72 0.95 1.09 1.13
1.21 1.42 2.08 1.85 1.56 0.87 0.63 0.82 1.08 1.07 0.82 0.56 0.49 0.71 1.00 1.52 2.45 2.41 1.57 1.38 1.80 3.02 1.63 1.18 0.68 0.39 0.30 0.59 0.62 0.66 0.39 0.23 0.55 0.92 0.89 0.65 0.59 0.93 0.70 0.51 0.66 0.94 0.68
2.60 2.47 3.19 4.34 3.84 2.91 1.91 1.42 1.43 1.65 1.34 1.37 1.77 1.83 1.87 1.84 2.50 1.41 0.69 1.06 2.45 2.34 1.07 0.94 0.57 0.32 0.45 0.22 0.27 0.42 0.39 0.33 0.53 0.95 0.95 1.09 1.34 1.46 0.59 0.64 0.66 0.60 0.59
6.23 5.29 5.62 6.71 5.83 4.59 3.53 2.32 2.32 2.14 1.88 1.91 1.67 2.14 2.46 1.35 1.12 0.77 0.42 0.44 0.64 0.56 0.57 0.47 0.22 0.27 0.43 0.28 0.23 0.26 0.38 0.42 0.96 2.03 2.03 1.13 1.20 1.26 0.72 0.86 0.78 0.57 0.46
4.44 5.86 6.90 7.55 8.35 7.50 4.24 3.28 3.30 3.37 2.92 2.39 2.16 1.95 2.16 1.62 1.25 0.97 0.45 0.32 0.26 0.17 0.30 0.37 0.28 0.36 0.41 0.43 0.47 0.43 0.58 0.78 1.19 2.61 2.13 1.68 0.99 1.35 1.32 0.93 0.73 0.51 0.35
2.47 3.25 3.60 3.74 7.19 11.79 7.99 5.03 4.14 3.79 3.59 2.59 2.39 1.76 1.31 1.54 1.54 1.39 0.58 0.29 0.23 0.16 0.31 0.56 0.65 0.70 0.50 0.52 0.63 0.47 0.65 0.65 0.83 0.66 0.67 0.84 0.72 1.31 1.48 1.24 0.76 0.57 0.47
2.72 2.38 1.89 2.61 3.40 5.97 9.68 6.53 5.18 4.21 2.78 2.60 2.23 1.68 1.18 0.95 0.89 0.83 0.48 0.32 0.27 0.27 0.45 0.76 0.73 0.80 0.98 0.69 0.75 0.81 0.53 0.32 0.63 0.71 0.34 0.62 0.68 1.07 1.09 1.03 0.78 0.69 0.53
1.94 2.28 1.85 1.28 1.37 2.04 4.48 4.27 4.57 4.59 2.74 2.18 1.79 1.30 1.13 0.94 0.55 0.40 0.29 0.26 0.42 0.37 0.42 0.49 0.70 0.86 0.78 0.38 0.40 0.43 0.30 0.55 0.86 1.31 0.62 0.43 0.88 0.96 0.95 0.98 0.78 0.72 0.74
1.33 1.65 1.27 1.16 0.94 1.14 2.23 1.95 2.41 3.15 3.40 2.31 1.98 1.24 1.23 0.86 0.54 0.50 0.31 0.32 0.64 0.42 0.18 0.23 0.38 0.47 0.44 0.41 0.29 0.25 0.29 0.64 0.53 1.36 0.97 0.55 1.15 1.17 1.19 0.88 1.05 1.18 1.05
0.71 0.90 0.92 0.52 0.66 1.01 1.01 1.24 1.52 1.52 3.14 2.89 2.20 1.67 1.35 0.88 0.41 0.33 0.24 0.24 0.23 0.40 0.20 0.14 0.19 0.26 0.37 0.48 0.49 0.36 0.36 0.57 0.47 0.73 0.72 0.50 0.87 1.25 1.06 0.89 0.91 0.99 1.16
0.73 0.83 0.81 0.67 0.64 0.58 0.40 0.53 1.23 1.02 1.79 2.85 2.29 1.81 1.33 0.82 0.39 0.20 0.20 0.23 0.16 0.25 0.33 0.30 0.23 0.31 0.39 0.52 0.56 0.40 0.56 0.67 0.66 0.68 0.58 0.26 0.48 1.05 0.94 0.69 0.85 0.99 0.93
0.72 0.90 0.68 0.64 0.65 0.53 0.38 0.39 0.87 0.88 1.01 2.13 1.76 1.28 1.46 0.86 0.48 0.34 0.31 0.18 0.22 0.23 0.25 0.44 0.41 0.36 0.37 0.38 0.58 0.61 0.66 0.71 0.73 0.90 0.87 0.64 0.46 0.46 0.98 1.15 0.76 0.89 1.09
0.53 0.61 0.51 0.71 0.78 0.71 0.49 0.55 0.74 0.84 0.90 1.40 1.16 1.16 1.44 0.87 0.66 0.49 0.39 0.27 0.18 0.20 0.19 0.22 0.36 0.64 0.72 0.56 0.51 0.72 0.84 0.56 0.52 0.54 0.51 0.40 0.35 0.35 0.52 1.02 1.42 1.04 0.78
0.23 0.52 0.77 0.95 1.27 1.19 0.49 0.59 0.68 0.74 0.82 1.12 0.95 1.04 1.44 0.85 0.61 0.53 0.44 0.33 0.26 0.18 0.16 0.13 0.15 0.39 0.60 0.54 0.45 0.49 0.51 0.47 0.38 0.31 0.32 0.25 0.23 0.20 0.30 0.43 0.74 1.65 1.43
0.21 0.38 0.67 1.00 1.17 1.40 1.28 1.58 1.30 0.93 0.78 0.86 0.79 0.92 1.52 1.05 0.82 0.49 0.34 0.35 0.29 0.19 0.13 0.13 0.14 0.16 0.31 0.34 0.37 0.38 0.38 0.47 0.53 0.59 0.32 0.30 0.25 0.24 0.36 0.60 0.71 0.87 1.06
0.09 0.38 0.79 1.20 1.72 2.90 2.09 1.22 0.73 0.71 0.74 0.74 0.85 0.90 1.45 0.96 0.91 0.95 0.56 0.49 0.42 0.25 0.15 0.14 0.13 0.19 0.13 0.19 0.34 0.43 0.41 0.63 0.63 0.70 0.78 0.63 0.40 0.35 0.39 0.67 0.73 0.57 0.65
0.16 0.53 0.85 0.92 1.05 0.95 0.51 0.42 0.42 0.58 0.78 0.89 0.96 0.80 1.45 1.20 0.79 1.03 1.14 0.66 0.57 0.37 0.27 0.20 0.25 0.29 0.38 0.35 0.61 0.57 0.51 0.44 0.49 0.51 0.59 0.61 0.67 0.54 0.65 0.51 0.78 0.55 0.46
0.33 0.38 0.26 0.15 0.11 0.17 0.19 0.23 0.23 0.29 0.47 0.56 1.17 0.89 1.10 1.29 0.69 0.67 0.98 1.02 0.94 0.66 0.67 0.64 0.53 0.43 0.38 0.52 0.55 0.51 0.47 0.44 0.31 0.37 0.41 0.36 0.35 0.49 0.48 0.55 0.62 0.54 0.58
0.04 0.10 0.08 0.08 0.09 0.11 0.14 0.16 0.23 0.23 0.34 0.57 1.23 1.30 0.93 1.29 0.92 0.60 0.78 0.89 0.94 0.81 0.73 0.60 0.63 0.59 0.53 0.40 0.53 0.52 0.44 0.37 0.25 0.17 0.20 0.21 0.21 0.25 0.25 0.42 0.52 0.51 0.62
0.07 0.03 0.09 0.13 0.08 0.09 0.10 0.11 0.13 0.14 0.18 0.32 0.69 1.01 1.09 1.10 0.98 0.74 0.72 0.78 0.89 0.70 0.61 0.47 0.48 0.56 0.62 0.43 0.47 0.44 0.29 0.29 0.40 0.32 0.19 0.24 0.31 0.24 0.23 0.37 0.38 0.39 0.56
0.04 0.09 0.16 0.16 0.17 0.20 0.17 0.17 0.20 0.20 0.25 0.28 0.50 1.03 1.15 1.21 1.38 1.15 1.02 1.12 0.97 0.96 0.71 0.64 0.58 0.65 0.61 0.48 0.33 0.36 0.34 0.31 0.28 0.28 0.28 0.22 0.31 0.24 0.24 0.28 0.36 0.45 0.56
0.07 0.14 0.24 0.23 0.27 0.31 0.31 0.29 0.31 0.37 0.28 0.28 0.41 0.97 1.28 1.27 1.27 1.42 1.79 1.80 1.59 1.41 1.41 1.10 0.93 0.79 0.62 0.58 0.56 0.52 0.52 0.60 0.53 0.53 0.47 0.30 0.29 0.29 0.30 0.27 0.21 0.23 0.36

GFSSE_prec_precacc_270.txt.gz
Total_Precipitation_Accumulation
0.40 0.30 0.26 0.09 0.09 0.07 0.08 0.04 0.02 0.03 0.03 0.04 0.04 0.05 0.11 0.14 0.11 0.10 0.11 0.12 0.16 0.17 0.14 0.11 0.19 0.27 0.29 0.37 0.37 0.46 0.34 0.35 0.58 1.29 1.71 1.53 1.60 1.41 1.20 1.35 1.26 1.27 1.82
0.88 0.59 0.66 0.26 0.08 0.05 0.07 0.07 0.10 0.04 0.05 0.08 0.04 0.06 0.12 0.17 0.13 0.11 0.14 0.27 0.37 0.39 0.34 0.23 0.34 0.49 0.46 0.46 0.37 0.40 0.26 0.10 0.14 0.47 1.23 1.41 1.06 0.98 1.21 1.63 1.57 1.34 1.40
1.21 1.01 0.81 0.69 0.22 0.15 0.33 0.12 0.05 0.05 0.04 0.03 0.03 0.04 0.17 0.21 0.21 0.27 0.46 0.45 0.63 0.62 0.46 0.34 0.54 0.78 0.80 0.61 0.43 0.46 0.24 0.10 0.13 0.21 0.53 0.78 1.11 1.31 0.95 1.11 1.36 1.31 1.39
0.96 1.23 0.92 1.07 1.12 0.53 0.43 0.23 0.17 0.10 0.05 0.03 0.12 0.14 0.33 0.25 0.37 0.88 1.15 1.05 0.89 0.84 0.58 0.49 0.52 1.36 1.05 0.85 0.52 0.31 0.21 0.18 0.24 0.20 0.27 0.58 1.11 1.40 0.85 0.70 0.87 1.10 1.35
0.94 0.60 0.96 1.12 1.00 0.80 0.47 0.28 0.43 0.48 0.34 0.08 0.08 0.28 0.45 0.67 1.42 2.37 2.62 1.60 1.70 1.62 1.16 0.90 0.69 1.01 1.19 0.84 0.49 0.32 0.25 0.17 0.23 0.42 0.54 0.63 0.76 1.29 0.91 0.72 0.95 1.09 1.13
1.21 1.42 2.08 1.85 1.56 0.87 0.63 0.82 1.08 1.07 0.82 0.56 0.49 0.71 1.00 1.52 2.45 2.41 1.57 1.38 1.80 3.02 1.63 1.18 0.68 0.39 0.30 0.59 0.62 0.66 0.39 0.23 0.55 0.92 0.89 0.66 0.60 0.94 0.71 0.51 0.66 0.95 0.68
2.60 2.47 3.19 4.34 3.84 2.91 1.91 1.42 1.43 1.65 1.34 1.37 1.77 1.83 1.87 1.84 2.50 1.41 0.69 1.06 2.45 2.34 1.07 0.94 0.57 0.32 0.45 0.22 0.27 0.42 0.39 0.33 0.53 0.95 0.95 1.09 1.34 1.48 0.60 0.65 0.67 0.60 0.59
6.23 5.29 5.62 6.71 5.83 4.59 3.53 2.32 2.32 2.14 1.88 1.91 1.67 2.14 2.46 1.35 1.12 0.77 0.42 0.44 0.64 0.56 0.57 0.47 0.22 0.27 0.43 0.28 0.23 0.26 0.38 0.42 0.96 2.03 2.03 1.13 1.20 1.28 0.73 0.86 0.78 0.58 0.46
4.44 5.86 6.90 7.55 8.36 7.50 4.24 3.28 3.30 3.37 2.92 2.39 2.16 1.95 2.16 1.62 1.25 0.97 0.45 0.32 0.26 0.17 0.30 0.37 0.28 0.36 0.41 0.43 0.47 0.43 0.58 0.78 1.19 2.61 2.13 1.68 0.99 1.36 1.32 0.93 0.74 0.51 0.36
2.47 3.25 3.60 3.74 7.20 11.79 7.99 5.03 4.14 3.79 3.59 2.59 2.39 1.76 1.31 1.54 1.54 1.39 0.58 0.29 0.23 0.16 0.31 0.56 0.65 0.70 0.50 0.52 0.63 0.47 0.65 0.65 0.83 0.66 0.67 0.84 0.72 1.31 1.48 1.24 0.77 0.57 0.47
2.72 2.38 1.89 2.61 3.41 5.98 9.68 6.53 5.18 4.21 2.78 2.60 2.23 1.68 1.18 0.95 0.89 0.83 0.48 0.32 0.27 0.27 0.45 0.76 0.73 0.80 0.98 0.69 0.75 0.81 0.53 0.32 0.63 0.71 0.34 0.62 0.68 1.07 1.09 1.03 0.78 0.69 0.53
1.94 2.28 1.85 1.28 1.37 2.05 4.48 4.27 4.57 4.59 2.74 2.18 1.79 1.30 1.13 0.94 0.55 0.40 0.29 0.26 0.42 0.37 0.42 0.49 0.70 0.86 0.78 0.38 0.40 0.43 0.30 0.55 0.86 1.31 0.62 0.43 0.88 0.96 0.95 0.98 0.78 0.72 0.74
1.33 1.65 1.27 1.16 0.94 1.14 2.23 1.95 2.41 3.15 3.40 2.31 1.98 1.24 1.23 0.86 0.54 0.50 0.31 0.32 0.64 0.42 0.18 0.23 0.38 0.47 0.44 0.41 0.29 0.25 0.29 0.64 0.53 1.36 0.97 0.55 1.15 1.17 1.19 0.88 1.05 1.18 1.05
0.71 0.90 0.92 0.52 0.66 1.01 1.01 1.25 1.52 1.52 3.14 2.89 2.20 1.67 1.35 0.88 0.41 0.33 0.24 0.24 0.23 0.40 0.20 0.14 0.19 0.26 0.37 0.48 0.49 0.36 0.36 0.57 0.47 0.73 0.72 0.50 0.87 1.25 1.06 0.89 0.91 0.99 1.16
0.74 0.85 0.82 0.67 0.64 0.58 0.40 0.53 1.23 1.02 1.79 2.85 2.29 1.81 1.33 0.82 0.39 0.20 0.20 0.23 0.16 0.25 0.33 0.30 0.23 0.31 0.39 0.52 0.56 0.40 0.56 0.67 0.66 0.68 0.58 0.26 0.48 1.05 0.94 0.69 0.85 0.99 0.93
0.76 0.98 0.72 0.64 0.65 0.53 0.38 0.39 0.87 0.88 1.01 2.13 1.76 1.28 1.46 0.86 0.48 0.34 0.31 0.18 0.22 0.23 0.25 0.44 0.41 0.36 0.37 0.38 0.58 0.61 0.66 0.71 0.73 0.90 0.87 0.64 0.46 0.46 0.98 1.15 0.76 0.89 1.09
0.56 0.65 0.59 0.75 0.78 0.71 0.49 0.55 0.74 0.84 0.90 1.40 1.16 1.16 1.44 0.87 0.66 0.49 0.39 0.27 0.18 0.20 0.19 0.22 0.36 0.64 0.72 0.56 0.51 0.72 0.84 0.56 0.52 0.54 0.51 0.40 0.35 0.35 0.52 1.02 1.42 1.04 0.78
0.24 0.61 0.95 1.16 1.30 1.21 0.49 0.59 0.68 0.74 0.82 1.12 0.95 1.04 1.44 0.85 0.61 0.53 0.44 0.33 0.26 0.18 0.16 0.13 0.15 0.39 0.60 0.54 0.45 0.49 0.51 0.47 0.38 0.31 0.32 0.25 0.23 0.20 0.30 0.43 0.74 1.65 1.43
0.21 0.39 0.72 1.09 1.19 1.45 1.28 1.58 1.30 0.93 0.78 0.86 0.79 0.92 1.52 1.05 0.82 0.49 0.34 0.35 0.29 0.19 0.13 0.13 0.14 0.16 0.31 0.34 0.37 0.38 0.38 0.47 0.53 0.59 0.32 0.30 0.25 0.24 0.36 0.60 0.71 0.87 1.06
0.09 0.38 0.79 1.20 1.72 2.92 2.12 1.22 0.73 0.71 0.74 0.74 0.85 0.90 1.45 0.96 0.91 0.95 0.56 0.49 0.42 0.25 0.15 0.14 0.13 0.19 0.13 0.19 0.34 0.43 0.41 0.63 0.63 0.70 0.78 0.63 0.40 0.35 0.39 0.67 0.73 0.57 0.65
0.16 0.53 0.85 0.92 1.05 0.96 0.53 0.42 0.42 0.58 0.78 0.89 0.96 0.80 1.45 1.20 0.79 1.03 1.14 0.66 0.57 0.37 0.27 0.20 0.25 0.29 0.38 0.35 0.61 0.57 0.52 0.44 0.49 0.51 0.59 0.61 0.67 0.54 0.65 0.51 0.78 0.55 0.46
0.33 0.38 0.26 0.15 0.11 0.17 0.20 0.24 0.24 0.29 0.47 0.56 1.17 0.89 1.10 1.29 0.69 0.67 0.98 1.02 0.94 0.66 0.67 0.64 0.53 0.43 0.38 0.52 0.55 0.51 0.47 0.44 0.31 0.37 0.41 0.36 0.35 0.49 0.48 0.55 0.62 0.54 0.58
0.04 0.10 0.08 0.09 0.09 0.11 0.15 0.20 0.27 0.25 0.35 0.57 1.23 1.30 0.93 1.29 0.92 0.60 0.78 0.89 0.94 0.81 0.73 0.60 0.63 0.59 0.53 0.40 0.53 0.52 0.44 0.37 0.25 0.17 0.20 0.21 0.21 0.25 0.25 0.42 0.52 0.51 0.62
0.07 0.03 0.09 0.16 0.19 0.15 0.16 0.14 0.15 0.14 0.18 0.32 0.69 1.01 1.09 1.10 0.98 0.74 0.72 0.78 0.89 0.70 0.61 0.47 0.48 0.56 0.62 0.43 0.47 0.44 0.29 0.29 0.40 0.32 0.19 0.24 0.31 0.24 0.23 0.37 0.38 0.39 0.56
0.04 0.09 0.16 0.18 0.32 0.40 0.39 0.23 0.24 0.21 0.26 0.29 0.50 1.03 1.15 1.21 1.38 1.15 1.02 1.12 0.97 0.96 0.71 0.64 0.58 0.65 0.61 0.48 0.33 0.36 0.34 0.31 0.28 0.28 0.29 0.22 0.31 0.24 0.24 0.28 0.37 0.47 0.57
0.07 0.14 0.24 0.23 0.32 0.49 0.62 0.56 0.42 0.42 0.31 0.29 0.41 0.97 1.28 1.27 1.27 1.42 1.79 1.80 1.59 1.41 1.41 1.10 0.93 0.79 0.62 0.58 0.56 0.52 0.52 0.60 0.53 0.53 0.47 0.30 0.29 0.29 0.30 0.27 0.21 0.23 0.36

GFSSE_prec_precacc_276.txt.gz
Total_Precipitation_Accumulation
0.40 0.30 0.26 0.09 0.09 0.07 0.08 0.04 0.02 0.03 0.03 0.04 0.04 0.05 0.11 0.14 0.11 0.10 0.11 0.12 0.16 0.17 0.14 0.12 0.20 0.28 0.30 0.38 0.37 0.46 0.34 0.35 0.58 1.30 1.72 1.54 1.61 1.41 1.21 1.36 1.27 1.28 1.84
0.88 0.59 0.66 0.26 0.08 0.05 0.07 0.07 0.10 0.04 0.05 0.08 0.04 0.06 0.12 0.17 0.13 0.11 0.14 0.27 0.37 0.39 0.35 0.24 0.34 0.49 0.46 0.47 0.37 0.40 0.26 0.10 0.14 0.47 1.24 1.43 1.07 0.99 1.21 1.64 1.58 1.34 1.41
1.21 1.01 0.81 0.69 0.22 0.15 0.33 0.12 0.05 0.05 0.04 0.03 0.03 0.04 0.17 0.21 0.21 0.27 0.46 0.45 0.63 0.63 0.46 0.35 0.54 0.78 0.80 0.61 0.43 0.46 0.24 0.10 0.13 0.22 0.54 0.78 1.12 1.33 0.97 1.12 1.37 1.32 1.40
0.96 1.23 0.92 1.07 1.12 0.53 0.43 0.23 0.17 0.10 0.05 0.03 0.12 0.14 0.33 0.25 0.37 0.88 1.15 1.05 0.90 0.84 0.59 0.50 0.52 1.36 1.05 0.85 0.52 0.31 0.21 0.18 0.24 0.20 0.27 0.59 1.13 1.43 0.87 0.72 0.88 1.11 1.36
0.94 0.60 0.96 1.12 1.00 0.80 0.47 0.28 0.43 0.48 0.34 0.08 0.08 0.28 0.45 0.67 1.42 2.37 2.62 1.60 1.70 1.62 1.16 0.90 0.69 1.01 1.19 0.84 0.49 0.32 0.25 0.17 0.23 0.42 0.54 0.63 0.76 1.30 0.92 0.73 0.96 1.10 1.15
1.21 1.42 2.08 1.85 1.56 0.87 0.63 0.82 1.08 1.07 0.82 0.56 0.49 0.71 1.00 1.52 2.45 2.41 1.57 1.38 1.80 3.02 1.63 1.18 0.68 0.39 0.30 0.59 0.62 0.66 0.39 0.23 0.55 0.92 0.89 0.66 0.60 0.95 0.72 0.53 0.68 0.97 0.70
2.60 2.47 3.19 4.34 3.84 2.91 1.91 1.42 1.43 1.65 1.34 1.37 1.77 1.83 1.87 1.84 2.50 1.41 0.69 1.06 2.45 2.34 1.07 0.94 0.57 0.32 0.45 0.22 0.27 0.42 0.39 0.33 0.53 0.95 0.95 1.09 1.35 1.50 0.61 0.66 0.68 0.62 0.60
6.23 5.29 5.62 6.71 5.83 4.59 3.53 2.32 2.32 2.14 1.88 1.91 1.67 2.14 2.46 1.35 1.12 0.77 0.42 0.44 0.64 0.56 0.57 0.47 0.22 0.27 0.43 0.28 0.23 0.26 0.38 0.42 0.96 2.03 2.03 1.14 1.22 1.30 0.74 0.87 0.78 0.58 0.47
4.44 5.86 6.90 7.55 8.36 7.50 4.24 3.28 3.30 3.37 2.92 2.39 2.16 1.95 2.16 1.62 1.25 0.97 0.45 0.32 0.26 0.17 0.30 0.37 0.28 0.36 0.41 0.43 0.47 0.43 0.58 0.78 1.19 2.61 2.13 1.69 1.00 1.38 1.33 0.94 0.74 0.52 0.37
2.47 3.25 3.60 3.74 7.20 11.79 7.99 5.03 4.14 3.79 3.59 2.59 2.39 1.76 1.31 1.54 1.54 1.39 0.58 0.29 0.23 0.16 0.31 0.56 0.65 0.70 0.50 0.52 0.63 0.47 0.65 0.65 0.83 0.66 0.67 0.84 0.72 1.32 1.49 1.24 0.77 0.58 0.48
2.72 2.38 1.89 2.61 3.41 5.98 9.68 6.53 5.18 4.21 2.78 2.60 2.23 1.68 1.18 0.95 0.89 0.83 0.48 0.32 0.27 0.27 0.45 0.76 0.73 0.80 0.98 0.69 0.75 0.81 0.53 0.32 0.63 0.71 0.34 0.62 0.68 1.07 1.09 1.03 0.78 0.70 0.53
1.94 2.28 1.85 1.28 1.37 2.05 4.48 4.27 4.57 4.59 2.74 2.18 1.79 1.30 1.13 0.94 0.55 0.40 0.29 0.26 0.42 0.37 0.42 0.49 0.70 0.86 0.78 0.38 0.40 0.43 0.30 0.55 0.86 1.31 0.62 0.43 0.88 0.96 0.95 0.98 0.78 0.72 0.74
1.33 1.65 1.27 1.16 0.94 1.14 2.23 1.95 2.41 3.15 3.40 2.31 1.98 1.24 1.23 0.86 0.54 0.50 0.31 0.32 0.64 0.42 0.18 0.23 0.38 0.47 0.44 0.41 0.29 0.25 0.29 0.64 0.53 1.36 0.97 0.55 1.15 1.17 1.19 0.88 1.05 1.18 1.05
0.72 0.92 0.93 0.52 0.66 1.01 1.01 1.25 1.52 1.52 3.14 2.89 2.20 1.67 1.35 0.88 0.41 0.33 0.24 0.24 0.23 0.40 0.20 0.14 0.19 0.26 0.37 0.48 0.49 0.36 0.36 0.57 0.47 0.73 0.72 0.50 0.87 1.25 1.06 0.89 0.91 0.99 1.16
0.80 0.95 0.85 0.69 0.64 0.58 0.40 0.53 1.23 1.02 1.79 2.85 2.29 1.81 1.33 0.82 0.39 0.20 0.20 0.23 0.16 0.25 0.33 0.30 0.23 0.31 0.39 0.52 0.56 0.40 0.56 0.67 0.66 0.68 0.58 0.26 0.48 1.05 0.94 0.69 0.86 0.99 0.93
0.79 1.14 0.85 0.67 0.69 0.57 0.38 0.39 0.87 0.88 1.01 2.13 1.76 1.28 1.46 0.86 0.48 0.34 0.31 0.18 0.22 0.23 0.25 0.44 0.41 0.36 0.37 0.38 0.58 0.61 0.66 0.71 0.73 0.90 0.87 0.64 0.46 0.46 0.98 1.15 0.76 0.89 1.09
0.56 0.70 0.63 0.78 0.87 0.81 0.55 0.56 0.74 0.84 0.90 1.40 1.16 1.16 1.44 0.87 0.66 0.49 0.39 0.27 0.18 0.20 0.19 0.22 0.36 0.64 0.72 0.56 0.51 0.72 0.84 0.56 0.52 0.54 0.51 0.40 0.35 0.35 0.52 1.02 1.42 1.04 0.78
0.24 0.62 0.97 1.16 1.39 1.38 0.55 0.64 0.69 0.74 0.82 1.12 0.95 1.04 1.44 0.85 0.61 0.53 0.44 0.33 0.26 0.18 0.16 0.13 0.15 0.39 0.60 0.54 0.45 0.49 0.51 0.47 0.38 0.31 0.32 0.25 0.23 0.20 0.30 0.43 0.74 1.65 1.43
0.21 0.39 0.73 1.10 1.24 1.62 1.42 1.69 1.37 0.94 0.78 0.86 0.79 0.92 1.52 1.05 0.82 0.49 0.34 0.35 0.29 0.19 0.13 0.13 0.14 0.16 0.31 0.34 0.37 0.38 0.38 0.47 0.53 0.59 0.32 0.30 0.25 0.24 0.36 0.60 0.71 0.87 1.06
0.09 0.38 0.79 1.21 1.74 3.04 2.30 1.38 0.82 0.77 0.75 0.74 0.85 0.90 1.45 0.96 0.91 0.95 0.56 0.49 0.42 0.25 0.15 0.14 0.13 0.19 0.13 0.19 0.34 0.43 0.41 0.63 0.63 0.70 0.78 0.63 0.40 0.35 0.39 0.67 0.73 0.57 0.65
0.16 0.53 0.85 0.92 1.08 1.11 0.63 0.48 0.48 0.62 0.83 0.89 0.96 0.80 1.45 1.20 0.79 1.03 1.14 0.66 0.57 0.37 0.27 0.20 0.25 0.29 0.38 0.35 0.61 0.57 0.52 0.44 0.49 0.51 0.59 0.61 0.67 0.54 0.65 0.51 0.78 0.55 0.46
0.33 0.38 0.26 0.15 0.12 0.26 0.34 0.36 0.34 0.36 0.54 0.58 1.17 0.89 1.10 1.29 0.69 0.67 0.98 1.02 0.94 0.66 0.67 0.64 0.53 0.43 0.38 0.52 0.55 0.51 0.47 0.44 0.31 0.37 0.41 0.36 0.35 0.49 0.48 0.55 0.62 0.54 0.58
0.04 0.10 0.08 0.09 0.09 0.11 0.17 0.25 0.33 0.32 0.39 0.57 1.23 1.30 0.93 1.29 0.92 0.60 0.78 0.89 0.94 0.81 0.73 0.60 0.63 0.59 0.53 0.40 0.53 0.52 0.44 0.37 0.25 0.17 0.20 0.21 0.21 0.25 0.25 0.42 0.52 0.51 0.62
0.07 0.03 0.09 0.16 0.19 0.15 0.17 0.15 0.17 0.16 0.19 0.32 0.71 1.03 1.09 1.10 0.98 0.74 0.72 0.78 0.89 0.70 0.61 0.47 0.48 0.56 0.62 0.43 0.47 0.44 0.29 0.29 0.40 0.32 0.19 0.24 0.31 0.24 0.23 0.37 0.38 0.39 0.56
0.04 0.09 0.16 0.18 0.32 0.40 0.40 0.25 0.28 0.24 0.27 0.32 0.57 1.09 1.17 1.22 1.40 1.15 1.02 1.12 0.97 0.96 0.71 0.64 0.58 0.65 0.61 0.48 0.33 0.36 0.34 0.31 0.28 0.28 0.29 0.22 0.31 0.24 0.24 0.28 0.37 0.47 0.57
0.07 0.14 0.24 0.23 0.32 0.49 0.63 0.59 0.45 0.45 0.36 0.32 0.43 1.01 1.32 1.32 1.31 1.45 1.80 1.80 1.59 1.41 1.41 1.10 0.93 0.79 0.62 0.58 0.56 0.52 0.52 0.60 0.53 0.53 0.47 0.30 0.29 0.29 0.30 0.27 0.21 0.23 0.37

GFSSE_prec_precacc_279.txt.gz
Total_Precipitation_Accumulation
0.40 0.30 0.26 0.09 0.09 0.07 0.08 0.04 0.02 0.03 0.03 0.04 0.04 0.05 0.11 0.14 0.11 0.10 0.11 0.12 0.16 0.18 0.15 0.12 0.20 0.29 0.31 0.38 0.38 0.47 0.35 0.35 0.58 1.30 1.73 1.55 1.61 1.41 1.21 1.36 1.27 1.28 1.84
0.88 0.59 0.66 0.26 0.08 0.05 0.07 0.07 0.10 0.04 0.05 0.08 0.04 0.06 0.12 0.17 0.13 0.11 0.14 0.27 0.37 0.40 0.35 0.24 0.35 0.50 0.47 0.47 0.37 0.40 0.26 0.11 0.14 0.47 1.25 1.43 1.07 0.99 1.22 1.64 1.58 1.35 1.42
1.21 1.01 0.81 0.69 0.22 0.15 0.33 0.12 0.05 0.05 0.04 0.03 0.03 0.04 0.17 0.21 0.21 0.27 0.46 0.45 0.64 0.63 0.47 0.36 0.55 0.79 0.80 0.61 0.43 0.46 0.24 0.10 0.13 0.22 0.54 0.79 1.13 1.34 0.97 1.13 1.38 1.33 1.41
0.96 1.23 0.92 1.07 1.12 0.53 0.43 0.23 0.17 0.10 0.05 0.03 0.12 0.14 0.33 0.25 0.37 0.88 1.15 1.05 0.90 0.85 0.59 0.50 0.52 1.36 1.05 0.85 0.52 0.31 0.21 0.18 0.24 0.20 0.27 0.60 1.14 1.44 0.88 0.72 0.89 1.11 1.36
0.94 0.60 0.96 1.12 1.00 0.80 0.47 0.28 0.43 0.48 0.34 0.08 0.08 0.28 0.45 0.67 1.42 2.37 2.62 1.60 1.70 1.63 1.16 0.90 0.69 1.01 1.19 0.84 0.49 0.32 0.25 0.17 0.23 0.42 0.54 0.64 0.76 1.31 0.92 0.74 0.96 1.11 1.16
1.21 1.42 2.08 1.85 1.56 0.87 0.63 0.82 1.08 1.07 0.82 0.56 0.49 0.71 1.00 1.52 2.45 2.41 1.57 1.38 1.80 3.02 1.63 1.18 0.68 0.39 0.30 0.59 0.62 0.66 0.39 0.23 0.55 0.92 0.89 0.66 0.60 0.95 0.72 0.53 0.68 0.98 0.71
2.60 2.47 3.19 4.34 3.84 2.91 1.91 1.42 1.43 1.65 1.34 1.37 1.77 1.83 1.87 1.84 2.50 1.41 0.69 1.06 2.45 2.34 1.07 0.94 0.57 0.32 0.45 0.22 0.27 0.42 0.39 0.33 0.53 0.95 0.95 1.09 1.35 1.51 0.62 0.66 0.68 0.62 0.60
6.23 5.29 5.62 6.71 5.83 4.59 3.53 2.32 2.32 2.14 1.88 1.91 1.67 2.14 2.46 1.35 1.12 0.77 0.42 0.44 0.64 0.56 0.57 0.47 0.22 0.27 0.43 0.28 0.23 0.26 0.38 0.42 0.96 2.03 2.03 1.14 1.22 1.30 0.74 0.87 0.79 0.59 0.47
4.44 5.86 6.90 7.55 8.36 7.50 4.24 3.28 3.30 3.37 2.92 2.39 2.16 1.95 2.16 1.62 1.25 0.97 0.45 0.32 0.26 0.17 0.30 0.37 0.28 0.36 0.41 0.43 0.47 0.43 0.58 0.78 1.19 2.61 2.13 1.69 1.01 1.38 1.34 0.94 0.74 0.53 0.38
2.47 3.25 3.60 3.74 7.20 11.79 7.99 5.03 4.14 3.79 3.59 2.59 2.39 1.76 1.31 1.54 1.54 1.39 0.58 0.29 0.23 0.16 0.31 0.56 0.65 0.70 0.50 0.52 0.63 0.47 0.65 0.65 0.83 0.66 0.67 0.84 0.73 1.33 1.49 1.25 0.77 0.58 0.48
2.72 2.38 1.89 2.61 3.41 5.98 9.68 6.53 5.18 4.21 2.78 2.60 2.23 1.68 1.18 0.95 0.89 0.83 0.48 0.32 0.27 0.27 0.45 0.76 0.73 0.80 0.98 0.69 0.75 0.81 0.53 0.32 0.63 0.71 0.34 0.62 0.68 1.08 1.10 1.03 0.78 0.70 0.53
1.94 2.28 1.85 1.28 1.37 2.05 4.48 4.27 4.57 4.59 2.74 2.18 1.79 1.30 1.13 0.94 0.55 0.40 0.29 0.26 0.42 0.37 0.42 0.49 0.70 0.86 0.78 0.38 0.40 0.43 0.30 0.55 0.86 1.31 0.62 0.43 0.88 0.96 0.96 0.98 0.78 0.72 0.74
1.34 1.65 1.27 1.16 0.94 1.14 2.23 1.95 2.41 3.15 3.40 2.31 1.98 1.24 1.23 0.86 0.54 0.50 0.31 0.32 0.64 0.42 0.18 0.23 0.38 0.47 0.44 0.41 0.29 0.25 0.29 0.64 0.53 1.36 0.97 0.55 1.15 1.17 1.19 0.88 1.05 1.18 1.05
0.76 0.94 0.93 0.52 0.66 1.01 1.01 1.25 1.52 1.52 3.14 2.89 2.20 1.67 1.35 0.88 0.41 0.33 0.24 0.24 0.23 0.40 0.20 0.14 0.19 0.26 0.37 0.48 0.49 0.36 0.36 0.57 0.47 0.73 0.72 0.50 0.87 1.25 1.06 0.89 0.91 0.99 1.16
0.82 0.98 0.89 0.73 0.66 0.60 0.40 0.53 1.23 1.02 1.79 2.85 2.29 1.81 1.33 0.82 0.39 0.20 0.20 0.23 0.16 0.25 0.33 0.30 0.23 0.31 0.39 0.52 0.56 0.40 0.56 0.67 0.66 0.68 0.58 0.26 0.48 1.05 0.94 0.69 0.86 1.00 0.93
0.79 1.15 0.87 0.69 0.78 0.66 0.44 0.40 0.87 0.88 1.01 2.13 1.76 1.28 1.46 0.86 0.48 0.34 0.31 0.18 0.22 0.23 0.25 0.44 0.41 0.36 0.37 0.38 0.58 0.61 0.66 0.71 0.73 0.90 0.87 0.64 0.46 0.46 0.98 1.15 0.76 0.90 1.09
0.56 0.70 0.64 0.82 0.89 0.85 0.62 0.58 0.74 0.84 0.90 1.40 1.16 1.16 1.44 0.87 0.66 0.49 0.39 0.27 0.18 0.20 0.19 0.22 0.36 0.64 0.72 0.56 0.51 0.72 0.84 0.56 0.52 0.54 0.51 0.40 0.35 0.35 0.52 1.02 1.42 1.04 0.78
0.24 0.62 0.97 1.17 1.39 1.39 0.55 0.67 0.72 0.74 0.82 1.12 0.95 1.04 1.44 0.85 0.61 0.53 0.44 0.33 0.26 0.18 0.16 0.13 0.15 0.39 0.60 0.54 0.45 0.49 0.51 0.47 0.38 0.31 0.32 0.25 0.23 0.20 0.30 0.43 0.74 1.65 1.43
0.21 0.39 0.73 1.10 1.25 1.64 1.44 1.81 1.50 1.01 0.78 0.86 0.79 0.92 1.52 1.05 0.82 0.49 0.34 0.35 0.29 0.19 0.13 0.13 0.14 0.16 0.31 0.34 0.37 0.38 0.38 0.47 0.53 0.59 0.32 0.30 0.25 0.24 0.36 0.60 0.71 0.87 1.06
0.09 0.38 0.79 1.21 1.76 3.06 2.33 1.44 0.93 0.85 0.77 0.75 0.86 0.90 1.45 0.96 0.91 0.95 0.56 0.49 0.42 0.25 0.15 0.14 0.13 0.19 0.13 0.19 0.34 0.43 0.41 0.63 0.63 0.70 0.78 0.63 0.40 0.35 0.39 0.67 0.73 0.57 0.65
0.16 0.53 0.85 0.92 1.08 1.12 0.68 0.53 0.52 0.64 0.96 0.95 0.96 0.80 1.45 1.20 0.79 1.03 1.14 0.66 0.57 0.37 0.27 0.20 0.25 0.29 0.38 0.35 0.61 0.57 0.52 0.44 0.49 0.51 0.59 0.61 0.67 0.54 0.65 0.51 0.78 0.55 0.46
0.33 0.38 0.26 0.15 0.12 0.26 0.35 0.38 0.38 0.41 0.63 0.74 1.24 0.90 1.10 1.29 0.69 0.67 0.98 1.02 0.94 0.66 0.67 0.64 0.53 0.43 0.38 0.52 0.55 0.51 0.47 0.44 0.31 0.37 0.41 0.36 0.35 0.49 0.48 0.55 0.62 0.54 0.58
0.04 0.10 0.08 0.09 0.09 0.11 0.17 0.26 0.35 0.39 0.47 0.65 1.27 1.32 0.94 1.29 0.92 0.60 0.78 0.89 0.94 0.81 0.73 0.60 0.63 0.59 0.53 0.40 0.53 0.52 0.44 0.37 0.25 0.17 0.20 0.21 0.21 0.25 0.25 0.42 0.52 0.51 0.62
0.07 0.03 0.09 0.16 0.19 0.15 0.17 0.15 0.18 0.22 0.26 0.38 0.80 1.20 1.15 1.10 0.98 0.74 0.72 0.78 0.89 0.70 0.61 0.47 0.48 0.56 0.62 0.43 0.47 0.44 0.29 0.29 0.40 0.32 0.19 0.24 0.31 0.24 0.23 0.37 0.38 0.39 0.56
0.04 0.09 0.16 0.18 0.32 0.40 0.40 0.25 0.28 0.24 0.29 0.37 0.64 1.21 1.37 1.29 1.41 1.15 1.02 1.12 0.97 0.96 0.71 0.64 0.58 0.65 0.61 0.48 0.33 0.36 0.34 0.31 0.28 0.28 0.29 0.22 0.31 0.24 0.24 0.28 0.37 0.47 0.57
0.07 0.14 0.24 0.23 0.32 0.49 0.63 0.59 0.45 0.45 0.36 0.34 0.49 1.11 1.41 1.55 1.53 1.55 1.85 1.82 1.59 1.41 1.41 1.10 0.93 0.79 0.62 0.58 0.56 0.52 0.52 0.60 0.53 0.53 0.47 0.30 0.29 0.29 0.30 0.27 0.21 0.23 0.37